OBJECT AA, 43900

Orbit data source: Space-Track

You're viewing an Uncataloged Satellite

Recently launched and/or uncataloged satellites may have evolving metadata. Metadata may include but not limited to: Owner, Maufacturer, Bus, Motor, and Mission.

OBJECT AA, 43900 is a satellite in SSO that was launched on Thu, 27 Dec 2018 UTC via a SOYUZ-2-1A launch vehicle from the Vostochny Cosmodrome (VOSTO). Unknown objects in Earth's orbit typically refer to objects detected orbiting the Earth but have not yet been identified or cataloged. These objects could be anything from previously untracked satellites, spent rocket stages, debris from satellite collisions, or even natural meteoroids temporarily captured by Earth's gravity.

Loading next visibility...
Identifier
43900, 2018-111AA
Orbit
SSO
Country
Flag of TBDTBD
Related business
None
Manufacturer
Unknown
Mission
Civil Technology
Bus & Motor
Unknown
Mass
Unknown
Launch date (UTC)
2018-12-27 (7 years ago)
Launch vehicle
SOYUZ-2-1A
Launch site
Vostochny Cosmodrome (VOSTO)
Object type
Unknown
Shape & HBR
Box, 0.1 m
Radar Cross Section
0.080 m², Medium (>0.1 m² and < 1m²)

Expand to show TLE details & history
Last TLE update: 16 hours ago

TLE from 16 hours ago
0 OBJECT AA
1 43900U 18111AA  25350.36990519  .00027901  00000-0  27060-3 0  9992
2 43900  96.9843 210.9361 0010433 121.1715 239.0570 15.66255857389835
Epoch: 2025-12-16T08:52Z
TLE epoch observation values (Epoch: 2025-12-16T08:52:39.808Z)
Latitude
-0.00008°
Longitude
-7.48485°
Altitude
376.42 km
Speed
7.682 km/s
True Right ascension
14h 03m 44s
True Declination
0° 00' 00"
Sunlit
Object was in daylight at epoch
Visualization orbit readout
Latitude
Unknown
Longitude
Unknown
Altitude
Unknown
Speed
Unknown
Apparent Right ascension
Unknown
Apparent Declination
Unknown
Sunlit
N/A
Visualization observer readout
Local Sidereal Time
23:54:11
Azimuth
Unknown
Elevation
Unknown
Doppler factor
Unknown
Orbital elements
Apogee altitude
373.553 km
Perigee altitude
359.479 km
Semi-major axis
6,744.653 km
Eccentricity
0.00104
Inclination
96.9843°
RAAN
210.9361°
Arg. of periapsis
121.1715°
True anomaly
238.95453°
Mean anomaly
239.057°
Eccentric anomaly
239.00576°
Mean motion
3.91835 °/min
Orbital period
91.88 mins
BSTAR
0.0002706
Loading maneuver chart data...
Computing Atmospheric mass density...

Documentation

Showing up to 5 results
|